Meteo18 Weather Cam more information Meteo18 Weather Cam


Thunder radar more information blitzortung!


Rain radar more information rain snow radar



Select another period ( hide this area )

Units Period Custom range Directly to
Metric English Both
Daily Weekly Monthly Yearly
use both date-selectors for a custom range
previous Day
With this date

WeatherUnderground graphs for this period ( click here )


Daily Summary for Monday 23 July 2018
Time Temp. ( °C ) Dew pt. ( °C ) Wind ( km/h ) from Gust ( km/h ) Pressure ( hPa ) Humid.( % ) Rainrate ( cm )
High19,9 14,2 4,7 NW ( 57/120 ) 8,0 1018,5 88 -
Average18,2 13,8 1,3 Calm #45/89 3,1 1018,1 76 -
Low14,9 12,6 -   0,0 1017,8 69 -
Daily Tabular details for Monday 23 July 2018
Time Temp. ( °C ) Dew pt. ( °C ) Wind ( km/h ) from Gust ( km/h ) Pressure ( hPa ) Humid.( % ) Rainrate ( cm )
00:04 19,7 14,1 1,4 NW 1,6 1017,8 70 -
00:08 19,7 14,1   Calm 6,4 1017,8 70 -
00:12 19,7 14,1   Calm 1,6 1017,8 70 -
00:19 19,7 14,1 1,4 WNW 3,2 1018,2 70 -
00:23 19,6 14,0 1,4 NNW 3,2 1018,2 70 -
00:29 19,6 14,0   Calm 1,6 1018,2 70 -
00:33 19,6 14,0 1,4 NW 3,2 1018,2 70 -
00:39 19,7 14,1 1,4 West 6,4 1018,2 70 -
00:43 19,8 13,9   Calm 4,8 1018,2 69 -
00:49 19,9 14,0   Calm 6,4 1018,2 69 -
00:53 19,9 14,0 3,2 NNW 6,4 1018,2 69 -
00:59 19,9 14,0 3,2 NW 4,8 1018,2 69 -
01:03 19,9 14,0 3,2 NNW 4,8 1018,2 69 -
01:09 19,8 13,9   Calm 6,4 1018,2 69 -
01:13 19,8 13,9 3,2 NW 4,8 1018,2 69 -
01:19 19,8 13,9 1,4 NW 4,8 1018,2 69 -
01:23 19,7 13,9 3,2 NNW 4,8 1018,2 69 -
01:29 19,7 13,9 3,2 WNW 6,4 1018,2 69 -
01:33 19,7 14,1 1,4 WNW 6,4 1018,2 70 -
01:39 19,7 14,1 3,2 WNW 4,8 1018,2 70 -
01:43 19,6 14,0 1,4 NW 6,4 1018,2 70 -
01:49 19,6 14,0 1,4 NW 8,0 1018,2 70 -
01:53 19,6 14,0 4,7 NNW 6,4 1018,2 70 -
01:59 19,6 14,0 4,7 NW 4,8 1018,2 70 -
02:03 19,6 14,0 3,2 WNW 6,4 1018,2 70 -
02:09 19,6 14,0 3,2 WNW 6,4 1018,2 70 -
02:13 19,6 14,0 1,4 NNW 4,8 1017,8 70 -
02:19 19,6 14,0 1,4 NW 6,4 1017,8 70 -
02:23 19,6 14,0 1,4 NNW 6,4 1017,8 70 -
02:29 19,5 14,1 3,2 NNW 3,2 1017,8 71 -
02:33 19,4 14,0 3,2 NNW 4,8 1017,8 71 -
02:39 19,2 14,0 1,4 NNW 3,2 1017,8 72 -
02:43 19,1 13,9 4,7 NW 4,8 1017,8 72 -
02:49 19,1 14,1 1,4 NW 3,2 1017,8 73 -
02:53 19,1 14,1 4,7 NW 6,4 1017,8 73 -
02:59 19,1 14,1 3,2 NW 6,4 1017,8 73 -
03:03 19,1 14,1 4,7 NNW 6,4 1017,8 73 -
03:09 19,1 14,1 1,4 WNW 8,0 1017,8 73 -
03:13 19,1 14,1 4,7 NW 8,0 1017,8 73 -
03:19 19,0 14,0 4,7 NW 6,4 1017,8 73 -
03:23 18,9 14,2 4,7 NW 8,0 1017,8 74 -
03:29 18,8 14,1 4,7 NNW 8,0 1017,8 74 -
03:33 18,7 14,2 4,7 NW 6,4 1017,8 75 -
03:39 18,7 14,2 3,2 WNW 4,8 1017,8 75 -
03:43 18,7 14,2   Calm 3,2 1017,8 75 -
03:49 18,6 14,1 1,4 North 1,6 1017,8 75 -
03:53 18,4 13,9   Calm 1,6 1017,8 75 -
03:57 18,4 14,1 1,4 NW 4,8 1017,8 76 -
04:03 18,6 14,1   Calm 3,2 1017,8 75 -
04:07 18,4 13,9   Calm 1,6 1017,8 75 -
04:14 18,3 14,0 1,4 NNW 1,6 1017,8 76 -
04:18 18,3 14,0   Calm   1017,8 76 -
04:24 18,1 14,0   Calm   1017,8 77 -
04:28 18,0 13,9   Calm   1018,2 77 -
04:34 17,9 13,8   Calm 1,6 1017,8 77 -
04:38 17,8 13,9   Calm 1,6 1017,8 78 -
04:44 17,8 13,9 3,2 NW 3,2 1017,8 78 -
04:48 17,8 13,9   Calm   1017,8 78 -
04:54 17,7 13,8   Calm 3,2 1017,8 78 -
04:58 17,7 13,8   Calm   1017,8 78 -
05:04 17,7 13,8   Calm   1017,8 78 -
05:08 17,6 13,7 1,4 WNW 1,6 1018,2 78 -
05:14 17,5 13,6   Calm 1,6 1018,2 78 -
05:18 17,4 13,7   Calm   1018,2 79 -
05:24 17,3 13,6   Calm   1018,2 79 -
05:28 17,1 13,6   Calm 1,6 1018,2 80 -
05:34 17,1 13,8 1,4 WNW 1,6 1018,2 81 -
05:38 17,1 13,6   Calm 1,6 1018,2 80 -
05:44 17,1 13,6   Calm   1018,2 80 -
05:48 17,0 13,5   Calm   1018,2 80 -
05:54 16,8 13,3   Calm   1018,2 80 -
05:58 16,6 13,3   Calm   1018,2 81 -
06:04 16,3 13,0   Calm   1018,2 81 -
06:08 16,1 12,8   Calm   1018,2 81 -
06:14 15,8 12,9   Calm   1018,2 83 -
06:18 15,7 12,8   Calm   1018,2 83 -
06:24 15,3 12,6   Calm   1018,2 84 -
06:28 15,2 12,7   Calm   1018,5 85 -
06:34 14,9 12,8   Calm   1018,5 87 -
06:38 14,9 12,8   Calm   1018,5 87 -
06:44 15,0 13,0   Calm   1018,5 88 -
06:48 15,1 13,1   Calm   1018,5 88 -
06:52 15,2 13,2   Calm   1018,5 88 -
06:58 15,5 13,3   Calm   1018,5 87 -
07:03 15,6 13,4   Calm   1018,5 87 -
07:09 16,0 13,7   Calm   1018,5 86 -
07:13 16,3 14,0   Calm   1018,5 86 -
07:19 16,8 14,1   Calm   1018,5 84 -
07:23 17,0 14,1   Calm   1018,5 83 -
Daily Summary for Monday 23 July 2018
Time Temp. ( °C ) Dew pt. ( °C ) Wind ( km/h ) from Gust ( km/h ) Pressure ( hPa ) Humid.( % ) Rainrate ( cm )
High19,9 14,2 4,7 NW ( 57/120 ) 8,0 1018,5 88 -
Average18,2 13,8 1,3 Calm #45/89 3,1 1018,1 76 -
Low14,9 12,6 -   0,0 1017,8 69 -
Daily Tabular details for Monday 23 July 2018
Time Temp. ( °C ) Dew pt. ( °C ) Wind ( km/h ) from Gust ( km/h ) Pressure ( hPa ) Humid.( % ) Rainrate ( cm )
00:04 19,7 14,1 1,4 NW 1,6 1017,8 70 -
00:08 19,7 14,1   Calm 6,4 1017,8 70 -
00:12 19,7 14,1   Calm 1,6 1017,8 70 -
00:19 19,7 14,1 1,4 WNW 3,2 1018,2 70 -
00:23 19,6 14,0 1,4 NNW 3,2 1018,2 70 -
00:29 19,6 14,0   Calm 1,6 1018,2 70 -
00:33 19,6 14,0 1,4 NW 3,2 1018,2 70 -
00:39 19,7 14,1 1,4 West 6,4 1018,2 70 -
00:43 19,8 13,9   Calm 4,8 1018,2 69 -
00:49 19,9 14,0   Calm 6,4 1018,2 69 -
00:53 19,9 14,0 3,2 NNW 6,4 1018,2 69 -
00:59 19,9 14,0 3,2 NW 4,8 1018,2 69 -
01:03 19,9 14,0 3,2 NNW 4,8 1018,2 69 -
01:09 19,8 13,9   Calm 6,4 1018,2 69 -
01:13 19,8 13,9 3,2 NW 4,8 1018,2 69 -
01:19 19,8 13,9 1,4 NW 4,8 1018,2 69 -
01:23 19,7 13,9 3,2 NNW 4,8 1018,2 69 -
01:29 19,7 13,9 3,2 WNW 6,4 1018,2 69 -
01:33 19,7 14,1 1,4 WNW 6,4 1018,2 70 -
01:39 19,7 14,1 3,2 WNW 4,8 1018,2 70 -
01:43 19,6 14,0 1,4 NW 6,4 1018,2 70 -
01:49 19,6 14,0 1,4 NW 8,0 1018,2 70 -
01:53 19,6 14,0 4,7 NNW 6,4 1018,2 70 -
01:59 19,6 14,0 4,7 NW 4,8 1018,2 70 -
02:03 19,6 14,0 3,2 WNW 6,4 1018,2 70 -
02:09 19,6 14,0 3,2 WNW 6,4 1018,2 70 -
02:13 19,6 14,0 1,4 NNW 4,8 1017,8 70 -
02:19 19,6 14,0 1,4 NW 6,4 1017,8 70 -
02:23 19,6 14,0 1,4 NNW 6,4 1017,8 70 -
02:29 19,5 14,1 3,2 NNW 3,2 1017,8 71 -
02:33 19,4 14,0 3,2 NNW 4,8 1017,8 71 -
02:39 19,2 14,0 1,4 NNW 3,2 1017,8 72 -
02:43 19,1 13,9 4,7 NW 4,8 1017,8 72 -
02:49 19,1 14,1 1,4 NW 3,2 1017,8 73 -
02:53 19,1 14,1 4,7 NW 6,4 1017,8 73 -
02:59 19,1 14,1 3,2 NW 6,4 1017,8 73 -
03:03 19,1 14,1 4,7 NNW 6,4 1017,8 73 -
03:09 19,1 14,1 1,4 WNW 8,0 1017,8 73 -
03:13 19,1 14,1 4,7 NW 8,0 1017,8 73 -
03:19 19,0 14,0 4,7 NW 6,4 1017,8 73 -
03:23 18,9 14,2 4,7 NW 8,0 1017,8 74 -
03:29 18,8 14,1 4,7 NNW 8,0 1017,8 74 -
03:33 18,7 14,2 4,7 NW 6,4 1017,8 75 -
03:39 18,7 14,2 3,2 WNW 4,8 1017,8 75 -
03:43 18,7 14,2   Calm 3,2 1017,8 75 -
03:49 18,6 14,1 1,4 North 1,6 1017,8 75 -
03:53 18,4 13,9   Calm 1,6 1017,8 75 -
03:57 18,4 14,1 1,4 NW 4,8 1017,8 76 -
04:03 18,6 14,1   Calm 3,2 1017,8 75 -
04:07 18,4 13,9   Calm 1,6 1017,8 75 -
04:14 18,3 14,0 1,4 NNW 1,6 1017,8 76 -
04:18 18,3 14,0   Calm   1017,8 76 -
04:24 18,1 14,0   Calm   1017,8 77 -
04:28 18,0 13,9   Calm   1018,2 77 -
04:34 17,9 13,8   Calm 1,6 1017,8 77 -
04:38 17,8 13,9   Calm 1,6 1017,8 78 -
04:44 17,8 13,9 3,2 NW 3,2 1017,8 78 -
04:48 17,8 13,9   Calm   1017,8 78 -
04:54 17,7 13,8   Calm 3,2 1017,8 78 -
04:58 17,7 13,8   Calm   1017,8 78 -
05:04 17,7 13,8   Calm   1017,8 78 -
05:08 17,6 13,7 1,4 WNW 1,6 1018,2 78 -
05:14 17,5 13,6   Calm 1,6 1018,2 78 -
05:18 17,4 13,7   Calm   1018,2 79 -
05:24 17,3 13,6   Calm   1018,2 79 -
05:28 17,1 13,6   Calm 1,6 1018,2 80 -
05:34 17,1 13,8 1,4 WNW 1,6 1018,2 81 -
05:38 17,1 13,6   Calm 1,6 1018,2 80 -
05:44 17,1 13,6   Calm   1018,2 80 -
05:48 17,0 13,5   Calm   1018,2 80 -
05:54 16,8 13,3   Calm   1018,2 80 -
05:58 16,6 13,3   Calm   1018,2 81 -
06:04 16,3 13,0   Calm   1018,2 81 -
06:08 16,1 12,8   Calm   1018,2 81 -
06:14 15,8 12,9   Calm   1018,2 83 -
06:18 15,7 12,8   Calm   1018,2 83 -
06:24 15,3 12,6   Calm   1018,2 84 -
06:28 15,2 12,7   Calm   1018,5 85 -
06:34 14,9 12,8   Calm   1018,5 87 -
06:38 14,9 12,8   Calm   1018,5 87 -
06:44 15,0 13,0   Calm   1018,5 88 -
06:48 15,1 13,1   Calm   1018,5 88 -
06:52 15,2 13,2   Calm   1018,5 88 -
06:58 15,5 13,3   Calm   1018,5 87 -
07:03 15,6 13,4   Calm   1018,5 87 -
07:09 16,0 13,7   Calm   1018,5 86 -
07:13 16,3 14,0   Calm   1018,5 86 -
07:19 16,8 14,1   Calm   1018,5 84 -
07:23 17,0 14,1   Calm   1018,5 83 -

Download your copy of this data-set  here

Our weather-data as stored at Weather Underground. Script developed by Jim McMurry. Adapted for the template by Leuven-Template.eu

You find our weather info also at:

Weather Underground

Equipment we use:

Weather-station
Davis Vue

Weather-program
Meteobridge

Weather-server
Raspberry PI 2 B+

Provider
1 and 1

Davis Vue

Meteobridge

Raspberry PI 2 B+

1 and 1